Regional Weather Roundup
Issued by NWS Upton, NY

Current Version | Previous Version | Graphics & Text | Print | Product List | Glossary Off
Versions: 1 2 3 4 5 6 7 8 9 10 11 12 13 14 15 16 17 18 19 20 21 22 23 24 25 26 27 28 29 30 31 32 33 34 35 36 37 38 39 40 41 42 43 44 45 46 47 48 49 50
249 ASUS41 KOKX 071808 RWROKX REGIONAL WEATHER ROUNDUP NATIONAL WEATHER SERVICE NEW YORK NY 100 PM EST WED DEC 07 2016 NOTE: "FAIR" INDICATES FEW OR NO CLOUDS BELOW 12,000 FEET WITH NO SIGNIFICANT WEATHER AND/OR OBSTRUCTIONS TO VISIBILITY. NYZ071-072-176-178-NJZ106-104-071900- NEW YORK CITY METRO AREA CITY SKY/WX TMP DP RH WIND PRES REMARKS Central Park CLOUDY 42 38 85 VRB3 29.98F FOG Wall St Helipt CLOUDY 44 40 85 W7 29.98S Bronx Bot Gard N/A 41 37 87 W3 29.98R LaGuardia APRT CLOUDY 46 39 76 VRB5 29.96F Kennedy INTL CLOUDY 45 39 79 CALM 29.97F Breezy Point N/A 43 N/A N/A W6 N/A Newark/Liberty CLOUDY 43 39 86 NW3 29.97F Teterboro CLOUDY 44 38 79 W5 29.96F $$ NYZ177-179-078>081-071900- LONG ISLAND NEW YORK CITY SKY/WX TMP DP RH WIND PRES REMARKS Jones Beach N/A 43 N/A N/A NW2 N/A Matinecock PT NOT AVBL Farmingdale CLOUDY 45 40 82 N5 29.95F MacArthur/ISP CLOUDY 45 40 82 VRB3 29.94F Shirley CLOUDY 45 41 86 N3 29.95F Westhampton CLOUDY 44 39 82 N3 29.96F Southampton N/A 46 43 87 NE1 29.91S Bridgehampton NOT AVBL East Hampton CLOUDY 44 39 82 CALM 29.94S Montauk N/A 45 40 82 E6 29.95F $$ NYZ052-065-067-071900- HUDSON VALLEY CITY SKY/WX TMP DP RH WIND PRES REMARKS White Plains CLOUDY 41 37 86 NW6 29.94F Newburgh PTSUNNY 41 39 93 VRB5 29.96F Montgomery CLOUDY 40 37 89 CALM 29.94F Poughkeepsie PTSUNNY 40 36 86 SW6 29.94F Albany CLOUDY 38 36 92 S10 29.95F WCI 31 $$ NJZ001-105-106-008-010-013-015-019>022-104-071900- NEW JERSEY CITY SKY/WX TMP DP RH WIND PRES REMARKS Newark/Liberty CLOUDY 43 39 86 NW3 29.97F Teterboro CLOUDY 44 38 79 W5 29.96F Caldwell CLOUDY 43 38 82 W3 29.97F Somerville CLOUDY 45 38 76 VRB5 29.96S Linden CLOUDY 43 39 87 CALM 29.97S Sussex CLOUDY 40 37 89 SW3 29.96S Andover N/A 41 36 82 CALM 29.96R Trenton CLOUDY 45 39 79 NW9 29.97S Millville CLOUDY 47 42 83 NW7 29.99R Atlantic City CLOUDY 46 42 86 NW7 29.98R Wrightstown CLOUDY 44 41 91 W6 29.96R Toms River CLOUDY 42 41 96 NW5 29.98S FOG Belmar CLOUDY 42 40 92 W8 29.98S FOG $$ PAZ047>061-062-071-071900- EASTERN PENNSYLVANIA CITY SKY/WX TMP DP RH WIND PRES REMARKS Philadelphia CLOUDY 46 38 73 N9 30.00R Allentown CLOUDY 45 35 68 NW7 29.98R Scranton CLOUDY 40 35 83 W9 29.95S WCI 34 $$ CTZ002-004>006-009-010-012-RIZ004-006-007-MAZ004-011-015-071900- SOUTHERN NEW ENGLAND IN CT CITY SKY/WX TMP DP RH WIND PRES REMARKS Bradley INTL CLOUDY 40 35 83 SW5 29.95F Hartford CLOUDY 41 37 86 VRB3 29.95F Danbury CLOUDY 40 36 86 SW3 29.95F Wtrbury/Oxford CLOUDY 39 34 81 NW3 29.95F Bridgeport CLOUDY 44 38 79 CALM 29.95F Meriden CLOUDY 43 36 76 CALM 29.95F New Haven CLOUDY 42 38 85 W3 29.95F Chester MOCLDY 45 39 81 CALM 29.93F Groton PTSUNNY 48 41 76 S5 29.94F Wilimantic PTSUNNY 45 38 76 VRB3 29.95F IN RI CITY SKY/WX TMP DP RH WIND PRES REMARKS Providence CLOUDY 42 37 82 E3 29.95F Block Island CLOUDY 43 39 86 E6 29.94F Westerly PTSUNNY 48 39 71 CALM 29.95S IN MA CITY SKY/WX TMP DP RH WIND PRES REMARKS Boston CLOUDY 41 38 89 N3 29.95F Worcester CLOUDY 37 34 89 S3 29.91F Westfield CLOUDY 38 36 92 CALM 29.95S Provincetown CLOUDY 44 41 89 NE7 29.95F Nantucket CLOUDY 46 42 86 N13 29.92F $$ ANZ330-335-338-340-345-350-353-355-071900- COASTAL MARINE OBSERVATIONS STATION/POSITION TIME SKY/WX TEMP WIND PRES VSBY WAVE AIR SEA DIR/SP/G HT/PER (UTC) (F) (DEG/KT/KT) (MB) (MI) (FT/S) NY HARB ENTRANCE 1650 44 53 350/ 2/ 6 1014.6 7/ 8 20 S FIRE ISLAND 1650 46 54 20/ 10/ 14 1014.0 7/ 8 GREAT SOUTH BAY 1730 44 44 N/A 23 SSW MONTAUK P 1650 47 54 30/ 8/ 12 1014.1 6/ 7 15 E BARNEGAT LI 1730 54 N/A 8/ 9 HUDSON CANYON 1650 51 57 1013.2 9/ 9 KINGS POINT 1748 42 48 1014.2 EXECUTION ROCKS 1745 42 320/ 2/ 4 N/A CENTRAL LI SOUND NOT AVBL EASTERN LI SOUND NOT AVBL ROBBINS REEF 1748 42 330/ 5/ 7 1015.0 $$ >>>>>>>>>>>>>>>>>>>>>>>>>>>> KEY <<<<<<<<<<<<<<<<<<<<<<<<<<< > < > SKY/WX - Sky Condition/Present Weather < > TMP - Temperature in Fahrenheit < > DP - Dew Point in Fahrenheit < > RH - Relative Humidity in Percent < > WIND - Direction (from) and Speed in MPH < > PRES - Mean Sea Level Pressure (inches of Hg) < > WCI - Wind Chill Index < > VSB - VISIBILITY IN MILES < > HX - HEAT INDEX < > TC - TEMPERATURE IN CELSIUS < > VRB - VARIABLE WIND DIRECTION < > < >>>>>>>>>>>>>>>>>>>>>>>>>>>> KEY <<<<<<<<<<<<<<<<<<<<<<<<<<<

USA.gov is the U.S. government's official web portal to all federal, state and local government web resources and services.